Galena, Illinois, United States (61036)
Lat: 42.42N, Lon: 90.43W
Wx Zone: ILZ001
Local Info
Past Weather Observations for Today

NOTE: This archive is for the closest National Weather Service station to Galena. Information may differ from the station used for current weather conditions.

Click here for Long-term Archive

Time Weather Temperature Dewpoint Humidity Pressure Winds Precip Visibility
14:53
Clear
77°F / 25°C 61°F / 16°C 57% 29.95 in
(1014 mb)
NW 11.5 mph
(NW 19 kph)
- 10SM
13:53
Clear
75°F / 24°C 57°F / 14°C 54% 29.95 in
(1014 mb)
W 10.4 mph
(W 17 kph)
- 10SM
12:53
Clear
75°F / 24°C 61°F / 16°C 61% 29.95 in
(1014 mb)
SSW 9.2 mph
(SSW 15 kph)
- 10SM
11:53
Clear
73°F / 23°C 61°F / 16°C 65% 29.95 in
(1014 mb)
SSW 11.5 mph
(SSW 19 kph)
- 10SM
10:53
Clear
72°F / 22°C 61°F / 16°C 69% 29.95 in
(1014 mb)
SSW 6.9 mph
(SSW 11 kph)
- 10SM
09:53
Partly Cloudy
66°F / 19°C 61°F / 16°C 83% 29.95 in
(1014 mb)
SW 5.8 mph
(SW 9 kph)
- 10SM
08:53
Partly Cloudy
63°F / 17°C 59°F / 15°C 88% 29.95 in
(1014 mb)
S 5.8 mph
(S 9 kph)
0.05 in
(1.27 mm)
10SM
08:24
Overcast
Light Rain
61°F / 16°C 59°F / 15°C 94% 29.95 in
(1014 mb)
S 4.6 mph
(S 7 kph)
0.05 in
(1.27 mm)
10SM
07:53
Overcast
Thunder Storms
59°F / 15°C 57°F / 14°C 94% 29.98 in
(1015 mb)
W 3.5 mph
(W 6 kph)
0.11 in
(2.79 mm)
3SM
07:48
Overcast
Thunder Storms
61°F / 16°C 57°F / 14°C 88% 29.98 in
(1015 mb)
SSW 4.6 mph
(SSW 7 kph)
0.10 in
(2.54 mm)
3SM
07:41
Overcast
Thunder Storms
61°F / 16°C 57°F / 14°C 88% 29.98 in
(1015 mb)
SSW 8.1 mph
(SSW 13 kph)
0.09 in
(2.29 mm)
1 3/4SM
07:33
Overcast
Thunder Storms
61°F / 16°C 57°F / 14°C 88% 29.98 in
(1015 mb)
W 8.1 mph
(W 13 kph)
0.02 in
(0.51 mm)
2 1/2SM
07:12
Overcast
Thunder Storms
61°F / 16°C 59°F / 15°C 94% 29.95 in
(1014 mb)
NE 6.9 mph
(NE 11 kph)
- 10SM
06:53
Overcast
Thunder Storms
63°F / 17°C 59°F / 15°C 88% 29.95 in
(1014 mb)
Calm - 10SM
06:51
Overcast
Thunder Storms
63°F / 17°C 59°F / 15°C 88% 29.95 in
(1014 mb)
Calm - 10SM
05:53
Mostly Cloudy
61°F / 16°C 59°F / 15°C 94% 29.92 in
(1013 mb)
Calm - 10SM
04:53
Clear
61°F / 16°C 57°F / 14°C 88% 29.89 in
(1012 mb)
Calm - 10SM
03:53
Clear
57°F / 14°C 57°F / 14°C 100% 29.89 in
(1012 mb)
Calm - 10SM
02:53
Clear
59°F / 15°C 59°F / 15°C 100% 29.89 in
(1012 mb)
SSW 3.5 mph
(SSW 6 kph)
- 10SM
01:53
Clear
61°F / 16°C 59°F / 15°C 94% 29.92 in
(1013 mb)
SW 3.5 mph
(SW 6 kph)
- 10SM
00:53
Clear
61°F / 16°C 59°F / 15°C 94% 29.89 in
(1012 mb)
SW 3.5 mph
(SW 6 kph)
- 7SM
Time Weather Temperature Dewpoint Humidity Pressure Winds Precip Visibility


Weather for websites

WeatherForYou.com, LLC is not responsible for any damages or problems caused by this service. Current weather conditions are obtained from the closest station including government and personal stations which may have varying degrees of accuracy. Weather forecasts are derived from the NOAA NDFD. Like all things, this site belongs to Jesus Christ... He just trusts me to maintain it. If you have any questions or comments email webmaster@weatherforyou.com

Copyright © 2014, WeatherForYou.com LLC. All rights reserved.